User: anonymous   Login
Location: Springfield
(37.2150°N, 93.2980°W)
Time: 21:37:14
(UTC-05:00)
Language:

Cosmos 1869 - Orbit

View from above orbital plane
View from above orbital plane
View from above satellite
View from above satellite

Ground track
Ground track

The orbit data is extracted from the following two-line orbital elements,

1 18214U 87062A   19111.61825496  .00000121  00000-0  59240-5 0  9992
2 18214  82.5059 156.9507 0006884  54.1759 306.0108 15.08068303729984
Epoch (UTC): 21 April 2019 14:50:17
Eccentricity: 0.0006884
inclination: 82.5059°
perigee height: 537 km
apogee height: 547 km
right ascension of ascending node: 156.9507°
argument of perigee: 54.1759°
revolutions per day: 15.08068303
mean anomaly at epoch: 306.0108°
orbit number at epoch: 72998

The dashed part of the orbit path shows where the satellite is in the earth's shadow,  

DLR